Abakan, Russia

12:33 AM +07 on November 23, 2019 (GMT +0700)
Abakan

Weather History for UNAA - September, 2019

Change the Weather History Date:

Monday, September 16, 2019

  Actual Average (WUND) Record (WUND)
Temperature  
Mean Temperature 56 °F -  
Max Temperature 66 °F - - (-1)
Min Temperature 46 °F - - (-1)
Degree Days  
Heating Degree Days 9    
Growing Degree Days 6 (Base 50)    
Moisture  
Dew Point 50 °F    
Average Humidity 78    
Maximum Humidity 100    
Minimum Humidity 52    
Precipitation  
Precipitation 0.00 in - - ()
Sea Level Pressure  
Sea Level Pressure 30.10 in    
Wind  
Wind Speed 5 mph ()    
Max Wind Speed 11 mph    
Max Gust Speed -    
Visibility 6.2 miles    
Events Rain    
Averages and records for this station are not official NWS values.
T = Trace of Precipitation, MM = Missing Value Source: Averaged Metar Reports

Daily Weather History Graph

Daily Weather History Graph

Search for Another Location

Airport or City:

Astronomy

Sep. 16, 2019 Rise Set
Actual Time 6:28 AM +07 7:09 PM +07
Civil Twilight 5:53 AM +07 7:44 PM +07
Nautical Twilight 5:10 AM +07 8:27 PM +07
Astronomical Twilight 4:24 AM +07 9:12 PM +07
Moon 8:17 PM +07 (9/16) 8:15 AM +07 (9/16)
Length of Visible Light 13h 51m
Length of Day
12h 41m
Waning Gibbous, 96% of the Moon is Illuminated
Sep 16
Waning Gibbous
Sep 22
Last Quarter
Sep 29
New
Oct 5
First Quarter
Oct 14
Full

Hourly Weather History & Observations

Time (+07) Temp. Windchill Dew Point Humidity Pressure Visibility Wind Dir Wind Speed Gust Speed Precip Events Conditions
12:00 AM 53.6 °F - 50.0 °F 88% 30.01 in 6.2 mi SW 11.2 mph - N/A Rain Light Rain Showers
12:30 AM 53.6 °F - 50.0 °F 88% 30.01 in 6.2 mi SW 11.2 mph - N/A Rain Light Rain Showers
1:00 AM 53.6 °F - 50.0 °F 88% 30.01 in 6.2 mi SW 8.9 mph - N/A Rain Light Rain Showers
1:30 AM 53.6 °F - 50.0 °F 88% 30.01 in 6.2 mi East 2.2 mph - N/A Rain Light Rain Showers
2:00 AM 51.8 °F - 50.0 °F 94% 30.04 in 5.6 mi Calm Calm - N/A Rain Light Rain Showers
2:30 AM 53.6 °F - 50.0 °F 88% 30.01 in 6.2 mi SSW 6.7 mph - N/A Rain Light Rain Showers
3:00 AM 53.6 °F - 50.0 °F 88% 30.04 in 6.2 mi SW 6.7 mph - N/A Rain Light Rain Showers
3:30 AM 51.8 °F - 50.0 °F 94% 30.04 in 6.2 mi SW 4.5 mph - N/A Rain Light Rain Showers
4:00 AM 51.8 °F - 50.0 °F 94% 30.04 in 6.2 mi Variable 2.2 mph - N/A Rain Light Rain Showers
4:30 AM 51.8 °F - 50.0 °F 94% 30.04 in 6.2 mi SW 4.5 mph - N/A   Scattered Clouds
5:00 AM 51.8 °F - 50.0 °F 94% 30.06 in 6.2 mi SW 4.5 mph - N/A   Scattered Clouds
6:30 AM 51.8 °F - 50.0 °F 94% 30.09 in 6.2 mi Calm Calm - N/A   Scattered Clouds
7:00 AM 50.0 °F - 50.0 °F 100% 30.09 in 6.2 mi SSE 2.2 mph - N/A   Mostly Cloudy
7:30 AM 51.8 °F - 50.0 °F 94% 30.09 in - South 4.5 mph - N/A   Clear
8:00 AM 51.8 °F - 50.0 °F 94% 30.12 in 6.2 mi Calm Calm - N/A   Scattered Clouds
9:00 AM 55.4 °F - 51.8 °F 88% 30.12 in 6.2 mi SSW 4.5 mph - N/A   Scattered Clouds
10:00 AM 57.2 °F - 51.8 °F 82% 30.15 in 6.2 mi South 2.2 mph - N/A   Scattered Clouds
10:30 AM 57.2 °F - 51.8 °F 82% 30.15 in 6.2 mi Variable 2.2 mph - N/A   Scattered Clouds
11:00 AM 60.8 °F - 51.8 °F 72% 30.15 in - ESE 2.2 mph - N/A   Clear
11:30 AM 62.6 °F - 51.8 °F 68% 30.15 in - Variable 2.2 mph - N/A   Clear
12:00 PM 62.6 °F - 50.0 °F 63% 30.15 in - SE 4.5 mph - N/A   Clear
12:30 PM 64.4 °F - 50.0 °F 59% 30.15 in 6.2 mi South 4.5 mph - N/A   Scattered Clouds
1:30 PM 64.4 °F - 48.2 °F 56% 30.12 in 6.2 mi SSE 4.5 mph - N/A   Scattered Clouds
2:00 PM 66.2 °F - 48.2 °F 52% 30.12 in 6.2 mi SE 4.5 mph - N/A   Scattered Clouds
2:30 PM 66.2 °F - 48.2 °F 52% 30.12 in 6.2 mi SSW 4.5 mph - N/A   Scattered Clouds
3:00 PM 66.2 °F - 50.0 °F 56% 30.12 in 6.2 mi South 4.5 mph - N/A   Scattered Clouds
3:30 PM 64.4 °F - 48.2 °F 56% 30.12 in 6.2 mi SSE 6.7 mph - N/A   Scattered Clouds
4:30 PM 66.2 °F - 50.0 °F 56% 30.12 in 6.2 mi SSE 6.7 mph - N/A   Scattered Clouds
5:00 PM 66.2 °F - 50.0 °F 56% 30.12 in 6.2 mi SE 8.9 mph - N/A   Scattered Clouds
5:30 PM 64.4 °F - 50.0 °F 59% 30.12 in - SE 8.9 mph - N/A   Clear
6:00 PM 64.4 °F - 50.0 °F 59% 30.12 in - ESE 6.7 mph - N/A   Clear
6:30 PM 62.6 °F - 50.0 °F 63% 30.12 in - ESE 6.7 mph - N/A   Clear
7:00 PM 60.8 °F - 50.0 °F 68% 30.12 in - ESE 8.9 mph - N/A   Clear
7:30 PM 59.0 °F - 50.0 °F 72% 30.12 in - ESE 6.7 mph - N/A   Clear
8:00 PM 59.0 °F - 50.0 °F 72% 30.12 in - SE 6.7 mph - N/A   Clear
8:30 PM 57.2 °F - 50.0 °F 77% 30.12 in - SE 6.7 mph - N/A   Clear
9:00 PM 57.2 °F - 50.0 °F 77% 30.12 in - ESE 8.9 mph - N/A   Clear
9:30 PM 55.4 °F - 50.0 °F 82% 30.12 in - ESE 6.7 mph - N/A   Clear
10:00 PM 55.4 °F - 50.0 °F 82% 30.12 in - SSE 4.5 mph - N/A   Clear
10:30 PM 51.8 °F - 48.2 °F 88% 30.15 in - South 2.2 mph - N/A   Clear
11:00 PM 46.4 °F 44.4 °F 44.6 °F 93% 30.12 in - ESE 4.5 mph - N/A   Clear
11:30 PM 46.4 °F - 44.6 °F 93% 30.12 in 5.6 mi Calm Calm - N/A   Unknown